Tracking 35280 objects as of 7-Sep-2026
HD Live streaming from Space Station
objects crossing your sky now

SL-16 DEB

Track SL-16 DEB now!
10-day predictions


NORAD ID: 43353
Int'l Code: 1995-058N
Launch date: October 31, 1995
Source: Commonwealth of Independent States (former USSR) (CIS)
Launch site: TYURATAM MISSILE AND SPACE COMPLEX (TTMTR)

Note: This is SATELLITE DEBRIS
Your satellite tracking list
Your tracking list is empty




NASA's NSSDC Master Catalog

Two Line Element Set (TLE):
1 43353U 95058N   26249.42516126  .00008915  00000-0  12649-2 0  9992
2 43353  70.9841 262.2685 0015805 359.5356   0.5782 14.77125284667951
Source of the keplerian elements: AFSPC